Vorticity
nan nan nan nan nan nan nan nan nan nan nan nan nan nan nan nan nan nan nan nan nan nan nan nan nan nan nan nan nan nan nan nan nan nan nan nan nan nan nan nan nan nan nan nan nan nan nan nan nan
nan -3 3 5 6 8 11 8 8 11 10 6 10 -0 4 15 23 13 8 11 7 4 6 6 6 6 6 6 6 7 6 6 6 5 5 5 5 5 5 6 6 7 7 6 7 8 6 6 nan
nan 7 4 7 4 8 12 11 6 7 4 4 2 4 11 15 8 11 10 6 6 3 6 6 6 5 6 8 7 7 7 6 7 7 6 5 5 6 6 6 6 6 6 6 6 6 5 6 nan
nan 10 5 3 9 11 6 11 8 -3 1 12 4 11 18 10 9 11 8 3 2 7 6 6 6 5 6 7 7 6 8 8 7 7 7 6 5 5 6 5 5 5 6 6 6 6 6 4 nan
nan 4 6 7 10 13 9 6 7 0 5 7 13 13 1 6 15 1 4 6 4 4 6 5 6 6 5 5 6 6 8 8 7 7 7 5 6 5 4 6 6 5 5 6 7 7 6 5 nan
nan 4 6 8 11 7 7 6 6 6 5 5 8 3 3 11 5 5 3 4 6 4 6 5 5 6 6 6 5 5 6 6 6 7 6 5 5 5 5 6 6 6 5 5 5 6 5 7 nan
nan 0 6 13 17 3 8 8 9 9 5 6 3 -2 9 10 4 5 3 5 6 6 3 6 5 5 5 5 7 7 6 6 7 6 6 6 5 5 6 5 6 7 6 5 5 6 7 7 nan
nan -2 8 14 8 6 13 7 2 2 12 12 -2 10 15 7 3 4 1 7 4 4 4 6 5 3 6 5 6 7 6 6 6 5 5 5 5 4 4 6 5 6 6 6 5 6 9 6 nan
nan 2 2 9 12 9 -0 2 -2 14 2 6 11 22 16 8 -1 4 4 3 5 5 5 6 6 5 4 7 5 6 7 5 4 5 5 5 2 7 5 4 7 6 6 6 6 7 4 6 nan
nan -3 9 14 0 6 4 7 4 5 7 9 17 17 14 5 3 3 8 4 6 5 4 4 7 7 3 5 5 5 5 5 6 6 5 2 4 10 6 5 6 5 5 3 3 0 6 7 nan
nan 2 5 -3 4 11 17 11 -0 6 20 3 12 10 5 5 6 4 5 3 7 4 8 11 6 7 4 4 4 7 5 6 9 10 6 5 4 5 5 7 7 6 5 5 5 2 10 4 nan
nan 6 3 11 2 9 11 0 20 17 4 12 18 12 5 5 5 8 4 4 5 5 8 7 3 9 6 5 5 7 9 6 9 6 10 9 13 8 3 7 8 7 9 7 5 5 8 6 nan
nan 6 3 4 10 13 5 14 10 2 13 14 14 10 6 4 5 7 5 5 4 5 7 4 5 3 8 6 10 9 10 8 6 7 12 7 8 8 9 9 9 4 5 6 8 11 8 8 nan
nan 6 13 4 7 4 4 1 12 19 9 11 9 8 8 4 5 4 6 6 5 6 5 5 5 3 8 5 12 7 8 11 9 12 5 4 7 7 8 8 7 12 11 8 6 9 7 7 nan
nan 8 12 1 6 9 5 5 13 27 5 9 8 9 6 4 7 6 5 6 6 6 6 5 4 5 5 7 5 6 6 6 9 10 7 4 6 6 10 8 5 11 7 10 6 6 10 9 nan
nan 13 7 11 10 5 5 11 8 4 6 9 8 7 7 7 5 5 6 7 7 5 6 7 6 5 4 8 4 6 9 9 7 7 6 6 6 7 7 8 10 7 8 7 8 8 6 7 nan
nan 12 8 12 11 8 -1 10 -3 5 21 12 9 6 7 7 5 8 6 6 6 8 8 5 7 8 4 5 6 6 9 8 7 8 7 9 8 7 6 10 9 7 9 8 7 8 6 10 nan
nan 5 7 11 12 8 4 11 9 2 2 13 13 7 8 8 7 9 6 5 5 7 7 4 6 9 6 4 7 8 7 5 7 10 9 8 7 7 8 9 5 7 11 9 8 10 6 8 nan
nan 8 14 10 9 6 11 7 3 -3 11 6 6 21 6 6 10 6 5 7 5 6 6 5 9 7 5 6 7 8 7 7 8 9 10 8 7 7 8 7 7 7 8 6 8 11 9 8 nan
nan 5 6 13 14 15 9 8 3 -1 15 9 5 14 8 10 7 4 7 7 6 7 5 7 9 7 5 4 6 8 6 7 8 10 11 7 8 6 9 8 7 8 9 7 6 6 10 10 nan
nan 7 5 4 15 16 9 1 3 0 5 20 28 7 10 8 9 6 7 5 6 8 7 7 7 7 4 4 6 8 7 8 8 10 7 8 9 5 7 10 7 7 8 11 7 4 7 11 nan
nan 7 6 7 9 13 7 8 12 6 7 12 12 5 19 8 8 7 6 6 7 7 7 7 7 6 5 5 7 8 6 7 8 7 10 10 8 7 8 7 7 8 9 8 6 9 7 6 nan
nan 7 10 8 7 9 11 8 12 20 4 4 6 11 11 16 6 7 6 7 7 6 7 7 7 5 7 5 5 8 6 6 8 8 12 8 8 10 7 6 8 8 8 7 8 9 10 6 nan
nan 9 9 14 14 10 10 9 13 7 7 9 6 9 13 14 9 8 9 7 6 7 7 8 7 5 7 7 5 7 6 5 6 9 9 8 7 8 9 9 7 6 9 9 10 6 4 7 nan
nan 8 12 11 10 11 10 6 11 11 10 7 3 13 17 7 11 9 10 7 10 8 6 6 8 7 8 7 5 7 9 4 7 11 8 7 7 8 9 8 8 8 9 7 10 7 8 9 nan
nan 6 5 3 4 11 10 11 2 -1 18 28 13 15 12 -1 9 12 8 8 10 8 8 8 9 7 7 6 7 6 6 6 9 7 7 8 9 13 12 7 7 8 8 8 8 7 10 10 nan
nan 7 2 8 6 6 12 10 12 14 9 3 11 17 3 12 15 8 8 9 9 9 9 8 8 8 7 5 7 7 5 8 7 6 8 7 6 14 15 7 7 9 8 9 6 7 9 9 nan
nan 9 9 8 9 7 10 13 18 13 13 5 -0 2 10 4 13 24 9 9 9 10 8 9 8 10 8 8 5 8 9 5 5 8 6 7 8 10 12 10 7 7 7 10 8 8 8 7 nan
nan 7 3 13 13 9 9 10 27 24 8 9 9 8 8 9 12 10 12 10 10 10 9 8 9 9 8 7 8 7 8 7 5 6 10 7 6 10 9 8 10 9 8 8 7 7 9 10 nan
nan nan nan nan nan nan nan nan nan nan nan nan nan nan nan nan nan nan nan nan nan nan nan nan nan nan nan nan nan nan nan nan nan nan nan nan nan nan nan nan nan nan nan nan nan nan nan nan nan
CAPE
0 0 30 602 744 735 580 381 486 168 99 52 32 235 189 398 488 693 223 525 549 600 840 1078 1950 1778 1995 2148 2242 2532 2301 2456 2143 1932 1893 2086 2225 1976 1776 2118 1888 1098 1361 1467 1549 1700 1542 1751 2234
0 1 493 834 579 283 202 565 178 94 52 136 184 279 430 529 312 265 535 594 474 496 629 1005 2237 2460 2187 2310 2694 2529 2033 1913 1883 2277 2430 2312 2104 1517 2100 2136 1630 1257 1181 1308 1892 1719 1700 1900 2034
252 288 344 671 792 86 365 312 116 170 242 121 553 593 391 273 344 344 356 385 482 661 1088 1661 2694 2748 2390 2251 2507 2582 2355 2276 2092 2008 2071 2179 1515 2020 1886 2038 1954 1991 1229 1221 1635 1893 1781 1818 1914
392 575 788 716 519 471 490 644 186 202 382 390 333 478 265 384 258 327 317 360 482 847 1097 1968 2780 2492 2451 2203 2362 2309 2024 2018 2128 1856 1882 1899 1705 2179 2060 2072 1837 1857 1749 1651 1633 1486 1379 1287 1622
245 781 604 942 423 692 488 537 194 96 311 491 549 413 211 285 337 318 455 363 457 476 908 1534 2639 2663 2537 2457 2254 2173 2002 1940 2265 2155 1989 1978 2013 2009 1927 1859 1814 1785 1635 1661 1416 1541 1518 1534 1509
512 808 749 661 512 267 306 344 276 260 465 584 527 263 210 253 392 403 355 368 354 273 364 1114 2218 2381 2206 1536 1508 1677 1868 1912 2145 2221 1933 2156 1931 1953 1805 1531 1555 1694 1651 1593 1515 1568 1544 1458 1608
39 684 556 445 496 545 815 592 398 588 480 666 580 502 310 286 499 338 252 270 23 40 788 1315 1531 1707 1885 1950 2061 2057 1819 1959 2099 1756 1701 1874 1761 1906 1884 1814 1631 1560 1518 1477 1388 1366 1465 1444 1601
2 128 188 417 310 208 615 640 702 305 337 510 774 563 300 191 438 454 401 34 2 289 782 1405 1840 1188 1727 1589 1865 1874 1842 1916 1836 1773 1893 1890 1991 1994 1729 2380 2016 1629 1457 1396 1281 1392 1712 1868 1664
28 24 88 347 268 268 584 820 407 57 345 639 654 603 311 139 273 594 603 19 224 127 532 324 709 1147 1733 1802 1701 1852 1828 1916 1997 1893 2016 2085 1602 1848 1687 2219 1764 1481 1450 1389 1330 1423 1502 1621 1744
11 39 297 179 86 25 37 482 0 399 791 654 716 527 331 233 255 432 47 21 14 324 532 414 283 591 1405 999 1827 2005 1569 1534 1935 2098 1867 1049 1339 2401 1181 1698 1873 1491 1448 1357 1310 1061 740 1396 1272
11 0 2 5 13 130 257 234 844 575 701 460 695 412 384 293 276 257 25 30 114 175 370 437 944 1211 860 1535 1891 2053 1399 2094 2204 2327 1778 2208 1997 1241 1315 1706 1453 1570 1586 1105 1358 700 630 1043 1336
4 0 41 20 5 220 465 406 271 286 510 510 527 366 379 231 221 51 17 15 197 253 338 310 997 1104 1613 1601 1904 859 1456 1871 1278 2036 2911 1177 2299 580 585 1197 1986 1524 1377 1264 1024 816 1063 1562 1053
0 0 0 28 11 545 102 7 56 44 501 378 438 273 303 264 159 42 21 18 127 303 279 831 1262 560 366 2997 1354 914 1184 1144 1581 1653 1039 540 1306 1649 1773 2037 786 992 933 713 492 1081 1123 961 1257
0 0 0 5 240 537 314 214 270 465 585 658 497 236 279 164 181 108 29 35 104 201 374 846 991 1932 2154 2303 2307 1954 2058 1260 1713 1645 1642 1330 1488 2446 2685 2069 1088 568 1092 946 677 423 1016 1597 1722
0 0 0 0 1 259 316 247 368 531 438 560 493 319 320 350 147 174 160 121 152 269 470 737 806 1268 2092 2008 2097 2536 217 1178 1921 2517 2314 1221 848 2608 2270 2241 2232 1128 926 1927 1969 856 1065 1014 245
0 0 0 0 0 17 175 387 444 389 238 510 574 418 420 287 298 326 325 180 143 149 608 715 247 890 1612 2744 2152 2187 710 2366 1515 1552 1935 460 1369 3290 2518 2568 2492 2720 1048 1809 1936 1131 948 1407 342
0 0 0 0 0 0 16 335 1244 329 342 640 498 502 446 366 502 562 321 318 168 299 583 728 934 848 1318 2440 1842 2196 1538 1758 2659 1118 795 2863 2910 2363 3161 1895 2763 2951 2246 2235 2111 316 203 1786 1177
0 0 0 0 0 0 0 332 298 72 48 169 629 512 507 418 449 704 360 349 50 240 589 1052 1046 1518 1904 1821 2488 2089 2240 1370 821 1550 1721 2761 3078 2577 2883 2782 2714 2953 1991 1968 1214 1317 1454 340 858
0 0 0 0 0 0 0 190 61 0 0 0 446 537 523 443 521 540 485 412 115 81 559 1341 1426 1780 1529 1462 1420 1811 1738 2403 1481 1605 2824 3083 2714 2848 2468 2498 2817 2879 480 1014 2475 2829 2483 1973 299
0 0 0 0 0 0 47 316 18 0 0 0 37 587 463 608 406 713 621 493 242 145 660 1001 1443 1757 1319 1705 1607 2031 2224 1865 2723 2783 2969 2569 2958 3271 2444 1324 2563 2566 2407 3053 1886 1331 1489 1942 1194
0 0 0 0 0 0 29 476 11 0 57 189 378 682 502 777 558 699 577 544 343 296 815 829 1751 1818 1470 1850 1540 2306 2265 2464 2317 2562 2475 2795 2866 3138 1936 2781 2680 2775 2949 2303 2808 2727 1991 2016 1136
0 0 0 0 0 0 0 0 588 348 480 642 676 179 378 423 778 574 446 689 428 403 836 1021 1620 1896 1329 2153 1346 1955 1583 1818 1991 643 2224 2585 3075 3042 3096 3293 3183 3633 2565 2100 2149 2561 898 1369 1841
0 0 0 0 0 0 0 1 19 937 609 46 15 261 321 75 716 695 716 658 551 522 698 1095 1242 1953 1135 1304 1936 1795 1904 1373 2502 1976 2572 2642 3674 3483 2336 2937 3289 3737 2795 2346 2777 2479 2292 1491 2152
0 0 0 0 0 0 0 0 2 604 104 0 33 498 470 192 340 714 883 762 761 583 541 1035 1158 1601 1464 1257 1598 2107 1536 2508 2006 2400 2094 2368 2305 2960 3388 3044 3595 3456 2368 3073 3113 3234 2680 3298 3315
0 0 0 0 0 0 0 0 0 94 704 113 7 618 761 459 426 717 767 888 829 682 510 829 1165 1229 1366 1331 1046 2295 1497 1872 3067 2566 2233 1424 1880 1769 2641 3941 3769 3320 3297 3024 3598 3461 3666 3398 3382
0 0 0 0 0 0 0 0 0 0 0 734 1000 585 889 953 351 767 987 994 995 1035 721 694 1345 1336 1325 1549 880 1252 2395 1390 1757 2724 1141 2118 1286 1558 2452 2798 3329 3548 3272 3266 3454 3261 3297 3370 3295
0 5 0 0 0 0 0 0 0 0 0 18 96 252 463 71 866 848 1099 1105 1262 1178 1179 866 1472 1576 1560 1239 1477 939 2202 2362 1140 2652 3357 1404 2270 2393 2649 2816 3219 3219 3349 3162 3637 2922 3196 3307 3390
0 0 3 3 8 8 0 2 0 0 0 81 145 70 149 22 173 944 884 1122 1235 1274 1480 1323 1552 1755 1792 1322 1461 1158 975 1770 1888 1005 3131 2614 3495 3245 2962 3006 2945 3067 3583 3556 3661 2866 3368 3507 3024
34 4 5 13 6 3 0 0 12 2 0 0 224 129 9 79 112 649 1120 1058 1241 1397 1419 1658 1549 1920 2085 1967 1392 1297 1178 1143 1125 1810 1961 2478 2511 3586 3619 3545 3135 3083 2970 3506 3689 3245 3151 3177 3415
11 6 8 47 29 14 28 13 89 30 0 0 0 205 134 95 162 119 699 1208 1284 1411 1449 1768 1713 1988 2120 2102 1803 1418 1420 1183 1117 757 2435 2481 3436 4014 4355 3443 3909 2967 2786 2985 3291 3080 2065 3114 3354